WetterOnline ( https://www.wetteronline.de )

Wetter aktuell Naila

Aktuelles Wetter: Hof/Flughafen (568m)

6-stündlich | Neueste Meldungen
Ortszeit Temperatur Wetter
So, 17.10. 14:00 8.6° C bedeckt
So, 17.10. 8:00 2.2° C bedeckt
So, 17.10. 2:00 0.1° C wolkig
Sa, 16.10. 20:00 4.4° C wolkenlos
Sa, 16.10. 14:00 8.9° C wolkenlos
Sa, 16.10. 8:00 1.8° C Nebel
Sa, 16.10. 2:00 2.1° C Nebel
Fr, 15.10. 20:00 7.5° C leichter Regen
Ortszeit Temperatur Wetter
So, 17.10. 15:00 8.9° C bedeckt
So, 17.10. 14:50 8.9° C bedeckt
So, 17.10. 14:40 8.8° C bedeckt
So, 17.10. 14:30 8.6° C bedeckt
So, 17.10. 14:20 8.6° C bedeckt
So, 17.10. 14:10 8.7° C bedeckt
So, 17.10. 14:00 8.6° C bedeckt
So, 17.10. 13:30 8.1° C bedeckt
So, 17.10. 13:00 8.1° C bedeckt
So, 17.10. 12:30 8.1° C bedeckt
So, 17.10. 12:00 7.4° C bedeckt
Ortszeit Relative Feuchte Sichtweite
So, 17.10. 14:00 62% 60 km
So, 17.10. 8:00 96% 24 km
So, 17.10. 2:00 95% 24 km
Sa, 16.10. 20:00 88% 35 km
Sa, 16.10. 14:00 68% 45 km
Sa, 16.10. 8:00 100% 100 m
Sa, 16.10. 2:00 99% 0.2 km
Fr, 15.10. 20:00 93% 20 km
Ortszeit Relative Feuchte Sichtweite
So, 17.10. 15:00 58% 65 km
So, 17.10. 14:50 58% -
So, 17.10. 14:40 59% -
So, 17.10. 14:30 58% 60 km
So, 17.10. 14:20 58% -
So, 17.10. 14:10 62% -
So, 17.10. 14:00 62% 60 km
So, 17.10. 13:30 66% 45 km
So, 17.10. 13:00 66% 40 km
So, 17.10. 12:30 77% 45 km
So, 17.10. 12:00 80% 28 km
Ortszeit Niederschlagsmenge Niederschlagsart
So, 17.10. 14:00 0.0 l/m2 in 6 Std. -
So, 17.10. 8:00 0.0 l/m2 in 12 Std. -
So, 17.10. 2:00 0.0 l/m2 in 6 Std. -
Sa, 16.10. 20:00 0.0 l/m2 in 12 Std. -
Sa, 16.10. 14:00 0.0 l/m2 in 6 Std. -
Sa, 16.10. 8:00 0.1 l/m2 in 12 Std. -
Sa, 16.10. 2:00 0.1 l/m2 in 6 Std. Regen
Fr, 15.10. 20:00 0.3 l/m2 in 12 Std. Regen
Ortszeit Niederschlagsmenge Niederschlagsart
So, 17.10. 15:00 0.0 l/m2 in 1 Std. -
So, 17.10. 14:50 keine Meldung -
So, 17.10. 14:40 keine Meldung -
So, 17.10. 14:30 0.0 l/m2 in 1 Std. -
So, 17.10. 14:20 keine Meldung -
So, 17.10. 14:10 keine Meldung -
So, 17.10. 14:00 0.0 l/m2 in 1 Std. -
So, 17.10. 13:30 0.0 l/m2 in 1 Std. -
So, 17.10. 13:00 0.0 l/m2 in 1 Std. -
So, 17.10. 12:30 0.0 l/m2 in 1 Std. -
So, 17.10. 12:00 0.0 l/m2 in 1 Std. -
Ortszeit Stärke Spitze Richtung
km/h Bft. km/h Grad Sektor
So, 17.10. 14:00 4 1 7 50° NO
So, 17.10. 8:00 2 1 11 170° S
So, 17.10. 2:00 0 0 7 - -
Sa, 16.10. 20:00 0 0 11 - -
Sa, 16.10. 14:00 6 1 11 170° S
Sa, 16.10. 8:00 4 1 11 220° SW
Sa, 16.10. 2:00 2 1 15 140° SO
Fr, 15.10. 20:00 6 1 33 300° NW
Ortszeit Stärke Spitze Richtung
km/h Bft. km/h Grad Sektor
So, 17.10. 15:00 4 1 7 60° NO
So, 17.10. 14:50 4 1 - 60° NO
So, 17.10. 14:40 2 1 - 340° N
So, 17.10. 14:30 0 0 7 - -
So, 17.10. 14:20 2 1 - 350° N
So, 17.10. 14:10 4 1 - 30° NO
So, 17.10. 14:00 4 1 7 50° NO
So, 17.10. 13:30 4 1 7 60° NO
So, 17.10. 13:00 4 1 7 350° N
So, 17.10. 12:30 4 1 7 140° SO
So, 17.10. 12:00 4 1 7 140° SO
Ortszeit Untergrenze Bedeckung Gattung
total tief tief mittel hoch
So, 17.10. 14:00 1230 m 8/8 8/8 - - -
So, 17.10. 8:00 990 m 8/8 8/8 - - -
So, 17.10. 2:00 7500 m 8/8 0/8 - - -
Sa, 16.10. 20:00 - 0/8 0/8 - - -
Sa, 16.10. 14:00 - 0/8 0/8 - - -
Sa, 16.10. 8:00 <30 m 8/8 0/8 - - -
Sa, 16.10. 2:00 360 m 0/8 0/8 - - -
Fr, 15.10. 20:00 210 m 8/8 8/8 - - -
Ortszeit Bedeckungsgrad in Achtel und Wolkenuntergrenze
So, 17.10. 15:00 8(1260m)
So, 17.10. 14:50 8(1260m)
So, 17.10. 14:40 8(1260m)
So, 17.10. 14:30 8(1230m)
So, 17.10. 14:20 8(1230m)
So, 17.10. 14:10 8(1230m)
So, 17.10. 14:00 8(1230m)
So, 17.10. 13:30 8(1200m)
So, 17.10. 13:00 8(1200m)
So, 17.10. 12:30 8(1200m)
So, 17.10. 12:00 8(1170m)
Ortszeit Luftdruck NN (hPa) Tendenz (hPa in 3 Std.)
So, 17.10. 14:00 1022 - 0,1
So, 17.10. 8:00 1023 + 0,1
So, 17.10. 2:00 1024 - 0,2
Sa, 16.10. 20:00 1023 + 0,3
Sa, 16.10. 14:00 1022 - 0,6
Sa, 16.10. 8:00 1024 + 0,7
Sa, 16.10. 2:00 1023 + 0,5
Fr, 15.10. 20:00 1020 + 2,0
Ortszeit Luftdruck NN (hPa) Tendenz (hPa in 3 Std.)
So, 17.10. 15:00 1022 - 0,4
So, 17.10. 14:50 1022 keine Meldung
So, 17.10. 14:40 1022 keine Meldung
So, 17.10. 14:30 1022 - 0,1
So, 17.10. 14:20 1022 keine Meldung
So, 17.10. 14:10 1022 keine Meldung
So, 17.10. 14:00 1022 - 0,1
So, 17.10. 13:30 1022 + 0,1
So, 17.10. 13:00 1022 + 0,1
So, 17.10. 12:30 1022 + 0,3
So, 17.10. 12:00 1023 + 0,6
Ortszeit Schneehöhe (cm)
So, 17.10. 14:00 0
So, 17.10. 8:00 -
So, 17.10. 2:00 -
Sa, 16.10. 20:00 0
Sa, 16.10. 14:00 0
Sa, 16.10. 8:00 -
Sa, 16.10. 2:00 0
Fr, 15.10. 20:00 -
Ortszeit Schneehöhe (cm)
So, 17.10. 15:00 0
So, 17.10. 14:50 0
So, 17.10. 14:40 -
So, 17.10. 14:30 -
So, 17.10. 14:20 -
So, 17.10. 14:10 -
So, 17.10. 14:00 0
So, 17.10. 13:30 -
So, 17.10. 13:00 -
So, 17.10. 12:30 0
So, 17.10. 12:00 -
Link zu dieser Seite / Seite empfehlen

Das Wetter in ...